Change the Weather History Date:

Saturday, June 15, 2013

  Actual Average Record
Temperature  
Mean Temperature 82 °F -  
Max Temperature 100 °F 93 °F - ()
Min Temperature 65 °F 64 °F - ()
Cooling Degree Days 18    
Growing Degree Days 32 (Base 50)    
Moisture  
Dew Point 57 °F    
Average Humidity 44    
Maximum Humidity 83    
Minimum Humidity 15    
Precipitation  
Precipitation 0.00 in 0.00 in - ()
Sea Level Pressure  
Sea Level Pressure 29.98 in    
Wind  
Wind Speed 5 mph ()    
Max Wind Speed 14 mph    
Max Gust Speed 22 mph    
Visibility 6.2 miles    
Events      
T = Trace of Precipitation, MM = Missing Value Source: Averaged Metar Reports

Daily Weather History Graph

Daily Weather History Graph

Search for Another Location

Airport or City:

Trip Planner

Search our weather history database for the weather conditions in past years. The results will help you decide how hot, cold, wet, or windy it might be!

Date:

Astronomy

Jun. 15, 2013 Rise Set
Actual Time 6:26 AM WEST 8:38 PM WEST
Civil Twilight 5:58 AM WEST 9:06 PM WEST
Nautical Twilight 5:24 AM WEST 9:41 PM WEST
Astronomical Twilight 4:47 AM WEST 10:18 PM WEST
Moon 12:26 PM WEST (6/15) 12:26 AM WEST (6/15)
Length of Visible Light 15h 08m
Length of Day
14h 12m
Waxing Crescent, 37% of the Moon is Illuminated
Jun 15
Waxing Crescent
Jun 16
First Quarter
Jun 23
Full
Jun 30
Last Quarter
Jul 8
New

Hourly Weather History & Observations

Time (WEST) Temp. Heat Index Dew Point Humidity Pressure Visibility Wind Dir Wind Speed Gust Speed Precip Events Conditions
12:00 AM 78.8 °F - 55.4 °F 44% 30.04 in 6.2 mi NNE 3.5 mph - N/A   Scattered Clouds
12:30 AM 77.0 °F - 55.4 °F 47% 30.04 in - NE 3.5 mph - N/A   Clear
1:00 AM 77 °F - 56 °F 37% 29.96 in 6 mi NNE 4.6 mph - -   Clear
1:00 AM 77.0 °F - 55.4 °F 47% 30.04 in - NNE 4.6 mph - N/A   Clear
1:30 AM 75.2 °F - 55.4 °F 50% 30.04 in - Variable 1.2 mph - N/A   Clear
2:00 AM 75.2 °F - 57.2 °F 53% 30.04 in - SW 3.5 mph - N/A   Clear
2:30 AM 73.4 °F - 57.2 °F 57% 30.01 in - SW 6.9 mph - N/A   Clear
3:00 AM 73.4 °F - 57.2 °F 57% 30.01 in - SW 4.6 mph - N/A   Clear
3:30 AM 73.4 °F - 57.2 °F 57% 30.01 in - SW 5.8 mph - N/A   Clear
4:00 AM 70 °F - 56 °F 53% 29.95 in 6 mi West 4.6 mph - -   Clear
4:00 AM 71.6 °F - 57.2 °F 60% 30.01 in - WSW 4.6 mph - N/A   Clear
4:30 AM 68.0 °F - 57.2 °F 68% 30.01 in - West 5.8 mph - N/A   Clear
5:00 AM 68.0 °F - 57.2 °F 68% 30.01 in - WSW 4.6 mph - N/A   Clear
5:30 AM 66.2 °F - 57.2 °F 73% 30.01 in - WSW 4.6 mph - N/A   Clear
6:00 AM 66.2 °F - 57.2 °F 73% 30.01 in - SW 5.8 mph - N/A   Clear
6:30 AM 66.2 °F - 59.0 °F 78% 30.01 in - WSW 3.5 mph - N/A   Clear
7:00 AM 66 °F - 58 °F 69% 29.97 in 6 mi SW 5.8 mph - -   Clear
7:00 AM 66.2 °F - 59.0 °F 78% 30.01 in - SW 5.8 mph - N/A   Clear
7:30 AM 66.2 °F - 59.0 °F 78% 30.01 in - WSW 5.8 mph - N/A   Clear
8:00 AM 66.2 °F - 60.8 °F 83% 30.01 in - WSW 4.6 mph - N/A   Clear
8:30 AM 69.8 °F - 60.8 °F 73% 30.01 in - West 3.5 mph - N/A   Clear
9:00 AM 71.6 °F - 60.8 °F 69% 30.04 in - Variable 2.3 mph - N/A   Clear
9:30 AM 75.2 °F - 60.8 °F 61% 30.04 in - Variable 2.3 mph - N/A   Clear
10:00 AM 76 °F - 60 °F 47% 29.96 in 6 mi NNE 2.3 mph - -  
10:00 AM 77.0 °F - 59.0 °F 54% 30.04 in - Variable 2.3 mph - N/A   Clear
10:30 AM 78.8 °F - 59.0 °F 51% 30.01 in - Variable 3.5 mph - N/A   Clear
11:00 AM 80.6 °F 80.8 °F 57.2 °F 45% 30.01 in - Variable 3.5 mph - N/A   Clear
11:30 AM 84.2 °F 83.5 °F 57.2 °F 40% 30.01 in - Variable 4.6 mph - N/A   Clear
12:00 PM 86.0 °F 84.9 °F 57.2 °F 37% 30.01 in 6.2 mi North 4.6 mph - N/A   Partly Cloudy
12:30 PM 87.8 °F 86.5 °F 57.2 °F 35% 30.01 in 6.2 mi NNW 4.6 mph - N/A   Partly Cloudy
1:00 PM 89 °F - 56 °F 22% 29.89 in 6 mi North 5.8 mph - -   Scattered Clouds
1:00 PM 89.6 °F 87.7 °F 55.4 °F 31% 30.01 in 6.2 mi North 5.8 mph - N/A   Partly Cloudy
1:30 PM 91.4 °F 89.4 °F 55.4 °F 29% 29.98 in 6.2 mi Variable 4.6 mph - N/A   Partly Cloudy
2:00 PM 93.2 °F 91.3 °F 55.4 °F 28% 29.98 in 6.2 mi Variable 4.6 mph - N/A   Partly Cloudy
2:30 PM 93.2 °F 91.3 °F 55.4 °F 28% 29.98 in 6.2 mi Variable 5.8 mph - N/A   Partly Cloudy
3:00 PM 95.0 °F 93.0 °F 55.4 °F 26% 29.95 in 6.2 mi North 4.6 mph - N/A   Partly Cloudy
3:30 PM 96.8 °F 95.8 °F 57.2 °F 27% 29.95 in 6.2 mi Variable 5.8 mph - N/A   Partly Cloudy
4:00 PM 99 °F - 57 °F 16% 29.80 in 6 mi NNE 9.2 mph - -   Scattered Clouds
4:00 PM 98.6 °F 97.6 °F 57.2 °F 25% 29.92 in 6.2 mi NNE 10.4 mph 21.9 mph N/A   Partly Cloudy
4:30 PM 98.6 °F 97.6 °F 57.2 °F 25% 29.92 in 6.2 mi North 8.1 mph - N/A   Partly Cloudy
5:00 PM 100.4 °F 99.7 °F 57.2 °F 24% 29.92 in 6.2 mi Variable 5.8 mph - N/A   Partly Cloudy
5:30 PM 100.4 °F 98.8 °F 55.4 °F 22% 29.92 in 6.2 mi ENE 8.1 mph - N/A   Partly Cloudy
6:00 PM 98.6 °F 97.2 °F 55.4 °F 24% 29.92 in 6.2 mi Variable 5.8 mph - N/A   Partly Cloudy
6:30 PM 100.4 °F 98.8 °F 55.4 °F 22% 29.92 in 6.2 mi North 9.2 mph - N/A   Partly Cloudy
7:00 PM 99 °F - 56 °F 15% 29.78 in 6 mi NNE 9.2 mph - -   Partly Cloudy
7:00 PM 98.6 °F 97.2 °F 55.4 °F 24% 29.92 in 6.2 mi NNE 9.2 mph - N/A   Partly Cloudy
7:30 PM 96.8 °F 95.8 °F 57.2 °F 27% 29.92 in 6.2 mi North 13.8 mph - N/A   Partly Cloudy
8:00 PM 93.2 °F 91.3 °F 55.4 °F 28% 29.92 in 6.2 mi North 13.8 mph - N/A   Partly Cloudy
8:30 PM 91.4 °F 89.1 °F 53.6 °F 28% 29.95 in 6.2 mi North 11.5 mph - N/A   Partly Cloudy
9:00 PM 87.8 °F 86.1 °F 55.4 °F 33% 29.95 in 6.2 mi North 10.4 mph - N/A   Partly Cloudy
9:30 PM 87.8 °F 86.1 °F 55.4 °F 33% 29.98 in 6.2 mi NNE 10.4 mph - N/A   Partly Cloudy
10:00 PM 85 °F - 55 °F 26% 29.90 in 6 mi NNE 5.8 mph - -   Scattered Clouds
10:00 PM 86.0 °F 84.5 °F 55.4 °F 35% 29.98 in 6.2 mi NNE 4.6 mph - N/A   Partly Cloudy
10:30 PM 84.2 °F 83.5 °F 57.2 °F 40% 30.01 in 6.2 mi NE 9.2 mph - N/A   Partly Cloudy
11:00 PM 82.4 °F 82.0 °F 57.2 °F 42% 30.01 in 6.2 mi NNE 5.8 mph - N/A   Partly Cloudy
11:30 PM 82.4 °F 82.0 °F 57.2 °F 42% 30.01 in - NNE 3.5 mph - N/A   Clear